This demonstration page uses our WeatherBlox Daily Observations layout. Learn more.

Left ArrowRight Arrow

39.01783, -85.05884

Hourly Observations for June 4, 2017

Temp ( °F °C ) Dew Point ( °F °C ) Humidity (%) Winds ( mph kmh ) Pressure ( in mb ) Visibility ( mi km ) Precip ( " mm )
12:52 am 00:52 Clear 65 18.3 54 12.2 68 68 SSW 7 11 30.01 1016 10 16 N/A
1:52 am 01:52 Clear 61 16.1 54 12.2 78 78 S 5 7 30.00 1016 10 16 N/A
2:52 am 02:52 Clear 61 16.1 55 12.8 81 81 SSW 5 7 29.98 1015 10 16 N/A
3:52 am 03:52 Clear 59 15 55 12.8 87 87 S 5 7 29.96 1015 10 16 N/A
4:52 am 04:52 Clear 63 17.2 54 12.2 73 73 N N/A 29.96 1014 10 16 N/A
5:52 am 05:52 Mostly Clear 56 13.3 55 12.8 97 97 SSW 7 11 29.95 1014 10 16 N/A
6:52 am 06:52 Mostly Cloudy 58 14.4 55 12.8 90 90 SSW 3 6 29.96 1015 10 16 N/A
7:52 am 07:52 Mostly Cloudy 67 19.4 56 13.3 68 68 SSW 3 6 29.96 1015 10 16 N/A
8:52 am 08:52 Mostly Cloudy 73 22.8 56 13.3 55 55 SW 3 6 29.96 1015 10 16 N/A
9:52 am 09:52 Mostly Cloudy 76 24.4 56 13.3 50 50 SW 9 15 29.95 1014 10 16 N/A
10:52 am 10:52 Mostly Cloudy 80 26.7 56 13.3 44 44 WSW 8 13 29.93 1014 10 16 N/A
11:52 am 11:52 Mostly Cloudy 81 27.2 56 13.3 42 42 SSW 7 11 29.92 1013 10 16 N/A
12:52 pm 12:52 Mostly Cloudy 83 28.3 58 14.4 43 43 SSW 8 13 29.91 1013 10 16 N/A
1:52 pm 13:52 Mostly Cloudy 83 28.3 59 15 44 44 S 10 17 29.90 1012 10 16 N/A
2:52 pm 14:52 Sunny 86 30 61 16.1 43 43 SW 7 11 29.87 1012 10 16 N/A
3:52 pm 15:52 Mostly Cloudy 85 29.4 60 15.6 43 43 SSW 7 11 29.84 1011 10 16 N/A
4:52 pm 16:52 Mostly Cloudy 85 29.4 60 15.6 43 43 SW 7 11 29.81 1010 10 16 N/A
5:52 pm 17:52 Mostly Cloudy 84 28.9 61 16.1 46 46 S 8 13 29.80 1009 10 16 N/A
6:52 pm 18:52 Mostly Cloudy 81 27.2 61 16.1 51 51 SSW 7 11 29.80 1009 10 16 N/A
7:52 pm 19:52 Mostly Cloudy 80 26.7 61 16.1 52 52 SSW 5 7 29.81 1010 10 16 N/A
8:52 pm 20:52 Mostly Cloudy 75 23.9 62 16.7 64 64 S 6 9 29.81 1009 10 16 N/A
9:52 pm 21:52 Mostly Cloudy 72 22.2 62 16.7 71 71 SSW 6 9 29.80 1009 10 16 N/A
10:52 pm 22:52 Cloudy 74 23.3 61 16.1 64 64 SSW 6 9 29.81 1009 10 16 N/A
11:52 pm 23:52 Cloudy 74 23.3 60 15.6 62 62 SSW 6 9 29.80 1009 10 16 N/A

Powered by AerisWeather